Weather History for Lincoln, NE

Change the Weather History Date:

Monday, March 31, 2014

  Actual Average Record
Temperature  
Mean Temperature 51 °F 46 °F  
Max Temperature 72 °F 59 °F 91 °F (2012)
Min Temperature 30 °F 33 °F 14 °F (1987)
Degree Days  
Heating Degree Days 14 19  
Month to date heating degree days 857 772  
Since 1 July heating degree days 5974 5476  
Cooling Degree Days 0 0  
Month to date cooling degree days 0 1  
Year to date cooling degree days 0 1  
Growing Degree Days 1 (Base 50)    
Moisture  
Dew Point 29 °F    
Average Humidity 39    
Maximum Humidity 53    
Minimum Humidity 25    
Precipitation  
Precipitation 0.00 in 0.09 in 1.73 in (1927)
Month to date precipitation 0.13 1.93  
Year to date precipitation 0.99 3.34  
Snow  
Snow 0.00 in 0.10 in - ()
Month to date snowfall 0.7 4.8  
Since 1 July snowfall 17.7 24.5  
Snow Depth 0.00 in    
Sea Level Pressure  
Sea Level Pressure 29.60 in    
Wind  
Wind Speed 24 mph (WSW)    
Max Wind Speed 35 mph    
Max Gust Speed 45 mph    
Visibility 10 miles    
Events      
T = Trace of Precipitation, MM = Missing Value Source: NWS Daily Summary

Daily Weather History Graph

Daily Weather History Graph

Search for Another Location

Airport:

Trip Planner

Search our weather history database for the weather conditions in past years. The results will help you decide how hot, cold, wet, or windy it might be!

Date:

Astronomy

Mar. 31, 2014 Rise Set
Actual Time 7:12 AM CDT 7:50 PM CDT
Civil Twilight 6:44 AM CDT 8:18 PM CDT
Nautical Twilight 6:11 AM CDT 8:51 PM CDT
Astronomical Twilight 5:38 AM CDT 9:25 PM CDT
Moon 7:35 AM CDT 9:11 PM CDT
Length of Visible Light 13h 34m
Length of Day
12h 38m
New Moon, 1% of the Moon is Illuminated
Mar 31
New Moon
Apr 7
First Quarter
Apr 15
Full
Apr 22
Last Quarter
Apr 29
New

Hourly Weather History & Observations

Time (CDT) Temp. Windchill Dew Point Humidity Pressure Visibility Wind Dir Wind Speed Gust Speed Precip Events Conditions
12:54 AM 64.9 °F - 33.1 °F 31% 29.55 in 10.0 mi South 24.2 mph 32.2 mph N/A   Clear
1:54 AM 66.0 °F - 33.1 °F 29% 29.52 in 10.0 mi South 25.3 mph 35.7 mph N/A   Clear
2:54 AM 66.0 °F - 35.1 °F 32% 29.48 in 10.0 mi South 23.0 mph 38.0 mph N/A   Clear
3:54 AM 66.0 °F - 36.0 °F 33% 29.45 in 10.0 mi South 24.2 mph 41.4 mph N/A   Partly Cloudy
4:54 AM 64.9 °F - 36.0 °F 34% 29.43 in 10.0 mi South 23.0 mph 31.1 mph N/A   Clear
5:54 AM 63.0 °F - 37.9 °F 40% 29.41 in 10.0 mi South 21.9 mph 34.5 mph N/A   Clear
6:54 AM 64.0 °F - 39.0 °F 40% 29.38 in 10.0 mi South 26.5 mph 34.5 mph N/A   Clear
7:54 AM 62.1 °F - 39.9 °F 44% 29.36 in 10.0 mi South 24.2 mph 40.3 mph N/A   Clear
8:54 AM 64.9 °F - 41.0 °F 42% 29.36 in 10.0 mi South 27.6 mph 38.0 mph N/A   Partly Cloudy
9:54 AM 70.0 °F - 36.0 °F 29% 29.38 in 10.0 mi SW 25.3 mph 40.3 mph N/A   Clear
10:54 AM 72.0 °F - 34.0 °F 25% 29.40 in 10.0 mi WSW 23.0 mph 35.7 mph N/A   Clear
11:54 AM 71.1 °F - 37.0 °F 29% 29.42 in 10.0 mi West 25.3 mph 39.1 mph N/A   Clear
12:54 PM 62.1 °F - 36.0 °F 38% 29.51 in 8.0 mi West 28.8 mph 34.5 mph N/A   Clear
1:54 PM 52.0 °F - 30.9 °F 45% 29.58 in 10.0 mi WNW 27.6 mph 41.4 mph N/A   Scattered Clouds
2:54 PM 50.0 °F - 28.9 °F 44% 29.64 in 10.0 mi WNW 29.9 mph 41.4 mph N/A   Mostly Cloudy
3:54 PM 46.9 °F - 26.1 °F 44% 29.67 in 10.0 mi WNW 26.5 mph 39.1 mph N/A   Overcast
4:54 PM 45.0 °F 36.4 °F 21.0 °F 39% 29.72 in 10.0 mi WNW 23.0 mph 33.4 mph N/A   Partly Cloudy
5:54 PM 43.0 °F 33.1 °F 17.1 °F 35% 29.77 in 10.0 mi West 26.5 mph 38.0 mph N/A   Partly Cloudy
6:54 PM 37.9 °F 26.1 °F 14.0 °F 38% 29.82 in 10.0 mi WNW 27.6 mph 35.7 mph N/A   Clear
7:54 PM 34.0 °F 20.8 °F 12.0 °F 40% 29.88 in 10.0 mi WNW 27.6 mph 40.3 mph N/A   Overcast
8:54 PM 33.1 °F 21.2 °F 14.0 °F 46% 29.91 in 10.0 mi WNW 20.7 mph 32.2 mph N/A   Mostly Cloudy
9:54 PM 32.0 °F 20.8 °F 14.0 °F 48% 29.96 in 10.0 mi WNW 17.3 mph 28.8 mph N/A   Partly Cloudy
10:54 PM 30.9 °F 17.8 °F 14.0 °F 50% 29.99 in 10.0 mi WNW 23.0 mph 29.9 mph N/A   Partly Cloudy
11:54 PM 30.0 °F 17.2 °F 15.1 °F 54% 30.00 in 10.0 mi WNW 20.7 mph 27.6 mph N/A   Clear